Home   Weather   Pully   Past weeks

Flag for Switzerland Past Weather in Pully, Vaud, Switzerland — Yesterday and Last 2 Weeks

Now
48 °F

Cool.


Feels Like: 48 °F
Forecast: 58 / 69 °F
Wind: No wind

Location: Aigle

Current Time: Sep 30, 2016 at 5:20:34 AM

Latest Report: Sep 30, 2016 at 4:00 AM


Visibility: N/A

Pressure: 30.16 "Hg

Humidity: 97%

Dew Point: 47 °F

Location of PullyLocation

Past Weather in Pully — Graph

°F

Pully Temperature Yesterday

Maximum temperature yesterday: 74 °F (at 4:00 PM)
Minimum temperature yesterday: 49 °F (at 4:00 AM)
Average temperature yesterday: 59 °F

High & Low Weather Summary for the Past Weeks

 TemperatureHumidityPressure
High74 °F (Sep 29, 4:00 PM)100% (Sep 18, 12:00 AM)30.46 "Hg (Sep 18, 12:00 AM)
Low47 °F (Sep 25, 7:00 AM)47% (Sep 29, 5:00 PM)29.75 "Hg (Sep 15, 5:00 AM)
Average59 °F85%30.13 "Hg
* Reported Sep 15 4:00 AM — Sep 30 4:00 AM, Pully, Weather by CustomWeather, © 2016

Note: Actual official high and low records may vary slightly from our data, if they occured in-between our weather recording intervals... More about our weather records

Advertising

Pully Weather History for the Previous 24 Hours

Scroll right to see more
 ConditionsComfort  
Time TempWeatherWind HumidityBarometerVisibility
4:00 AM
Fri, Sep 30
48 °FCool.No wind97%30.16 "HgN/A
3:00 AM49 °FCool.1 mph95%30.17 "HgN/A
2:00 AM50 °FCool.2 mph95%30.18 "HgN/A
1:00 AM49 °FCool.1 mph96%30.19 "HgN/A
12:00 AM50 °FCool.1 mph97%30.19 "HgN/A
11:00 PM
Thu, Sep 29
52 °FCool.2 mph94%30.18 "HgN/A
10:00 PM52 °FCool.2 mph97%30.18 "HgN/A
9:00 PM56 °FCool.1 mph90%30.17 "HgN/A
8:00 PM59 °FClear.3 mph83%30.16 "Hg19 mi
7:00 PM60 °FCool.1 mph88%30.16 "HgN/A
6:00 PM72 °FMild.1 mph53%30.14 "HgN/A
5:00 PM74 °FSunny.3 mph47%30.14 "Hg19 mi
4:00 PM74 °FMild.5 mph50%30.16 "HgN/A
3:00 PM72 °FMild.7 mph55%30.18 "HgN/A
2:00 PM71 °FPassing clouds.6 mph62%30.21 "Hg19 mi
1:00 PM69 °FMild.6 mph63%30.25 "HgN/A
12:00 PM69 °FMild.3 mph59%30.27 "HgN/A
11:00 AM65 °FPassing clouds.3 mph60%30.30 "Hg19 mi
10:00 AM62 °FCool.3 mph70%30.32 "HgN/A
9:00 AM57 °FCool.3 mph83%30.34 "HgN/A
8:00 AM50 °FSunny.1 mph94%30.36 "Hg25 mi
7:00 AM49 °FCool.1 mph95%30.37 "HgN/A
6:00 AM51 °FCool.3 mph94%30.37 "HgN/A
5:00 AM51 °FClear.3 mph94%30.38 "Hg25 mi
Weather by CustomWeather, © 2016

See weather overviewHow to use our weather pages